CZ-4B DEB, 56088

Orbit data source: Space-Track

CZ-4B DEB, 56088 is space debris in SSO originally from a launch on Wed, 24 Oct 2018 UTC launched from the Taiyaun Space Center, China (TSC). Debris objects in space refer to the collection of defunct objects orbiting the Earth. Examples of debris include non-operational satellites, rocket bodies, and fragments generated from explosions, collisions, or faulty payload assembly.

Loading next visibility...
Identifier
56088, 2018-081J
Orbit
SSO
Country
Flag of CNCN / PRC
Related business
Manufacturer
Unknown
Mission
Spacecraft
Bus & Motor
Unknown
Mass
Unknown
Launch date (UTC)
2018-10-24 (7 years ago)
Launch vehicle
Unknown
Launch site
Taiyaun Space Center, China (TSC)
Object type
Payload
Rocket body
Debris
Shape & HBR
Unknown
Radar Cross Section
Small (<0.1 m²)

Expand to show TLE details & history
Last TLE update: 2 days ago

TLE from 2 days ago
0 CZ-4B DEB
1 56088U 18081J   25256.35867010  .00003080  00000-0  11908-2 0  9997
2 56088  98.7708  50.4688 0142714 323.4460  35.7044 14.25420205126221
Epoch: 2025-09-13T08:36Z
TLE epoch observation values (Epoch: 2025-09-13T08:36:29.096Z)
Latitude
-0°
Longitude
-71.2456°
Altitude
727.223 km
Speed
7.535 km/s
True Right ascension
03h 21m 52s
True Declination
0° 00' 00"
Sunlit
Object was in full shadow at epoch
Visualization orbit readout
Latitude
Unknown
Longitude
Unknown
Altitude
Unknown
Speed
Unknown
Apparent Right ascension
Unknown
Apparent Declination
Unknown
Sunlit
N/A
Visualization observer readout
Local Sidereal Time
23:29:07
Azimuth
Unknown
Elevation
Unknown
Doppler factor
Unknown
Orbital elements
Apogee altitude
906.736 km
Perigee altitude
701.731 km
Semi-major axis
7,182.371 km
Eccentricity
0.01427
Inclination
98.7708°
RAAN
50.4688°
Arg. of periapsis
323.446°
True anomaly
36.67279°
Mean anomaly
35.7044°
Eccentric anomaly
36.18719°
Mean motion
3.56567 °/min
Orbital period
100.96 mins
BSTAR
0.0011908
Loading maneuver chart data...
Computing Atmospheric mass density...
Loading historical data...
Loading historical data...
Loading historical data...
Loading historical data...
Loading historical data...
Loading historical data...
Loading historical data...

Documentation

Showing up to 5 results
|